Location: Ljubljana
(46.0553°N, 14.5144°E)
Time: 16:19:35
(UTC+01:00)

Envisat - Visible Passes

Search period start: 27 October 2020 00:00
Search period end: 06 November 2020 00:00
Orbit: 764 x 766 km, 98.1° (Epoch: 27 October)

Date Brightness Start Highest point End Pass type
(mag) Time Alt. Az. Time Alt. Az. Time Alt. Az.
27 Oct 6.3 04:43:09 10° NE 04:45:53 14° E 04:48:37 10° ESE visible
27 Oct 4.3 17:37:38 10° S 17:42:30 46° W 17:47:24 10° NNW visible
28 Oct 4.1 05:43:41 10° NNE 05:48:39 51° E 05:53:35 10° S visible
28 Oct 6.4 18:43:01 10° WSW 18:45:19 13° W 18:47:37 10° WNW visible
29 Oct 5.5 05:07:30 10° NE 05:11:37 24° E 05:15:42 10° SSE visible
29 Oct 5.3 18:03:48 10° SSW 18:08:06 27° W 18:12:25 10° NW visible
30 Oct 6.5 04:32:48 10° ENE 04:34:21 11° E 04:35:54 10° ESE visible
30 Oct 3.8 17:26:06 10° S 17:31:05 58° W 17:36:07 10° NNW visible
31 Oct 4.5 05:32:26 10° NNE 05:37:14 41° E 05:42:00 10° SSE visible
31 Oct 6.1 18:30:38 10° SW 18:33:47 16° W 18:36:58 10° NW visible
01 Nov 5.8 04:56:27 10° NE 05:00:07 20° E 05:03:46 10° SE visible
01 Nov 4.9 17:52:03 10° SSW 17:56:38 34° W 18:01:15 10° NNW visible
02 Nov 3.4 05:57:40 10° NNE 06:02:45 69° ESE 06:07:48 10° S visible
02 Nov 3.4 17:14:38 10° S 17:19:41 72° WSW 17:24:47 10° NNW visible
03 Nov 4.9 05:21:13 10° NNE 05:25:48 33° E 05:30:20 10° SSE visible
03 Nov 5.8 18:18:33 10° SW 18:22:17 20° W 18:26:03 10° NW visible
04 Nov 6.1 04:45:35 10° NE 04:48:37 16° E 04:51:38 10° SE visible
04 Nov 4.4 17:40:24 10° S 17:45:12 42° W 17:50:02 10° NNW visible
05 Nov 3.9 05:46:20 10° NNE 05:51:21 55° E 05:56:19 10° S visible
05 Nov 3.1 17:03:13 10° SSE 17:08:18 89° WSW 17:13:25 10° NNW visible
05 Nov 6.4 18:46:12 10° WSW 18:48:03 12° W 18:49:54 10° WNW visible
